Location: Jefferson
(30.9666°N, 81.7901°W)
Time: 14:51:21
(UTC+00:00)

Hubble Space Telescope - Visible Passes

Search period start: 20 September 2024 00:00
Search period end: 30 September 2024 00:00
Orbit: 505 x 509 km, 28.5° (Epoch: 19 September)

Date Brightness Start Highest point End Pass type
(mag) Time Alt. Az. Time Alt. Az. Time Alt. Az.
23 Sep 3.2 10:41:53 10° S 10:43:54 14° SSE 10:45:54 10° SE visible
24 Sep 3.1 10:20:37 10° SSW 10:22:57 15° SSE 10:25:18 10° ESE visible
25 Sep 2.9 09:59:52 12° SSW 10:02:00 17° SSE 10:04:37 10° ESE visible
26 Sep 2.6 09:40:21 18° S 09:41:02 19° SSE 09:43:51 10° ESE visible
27 Sep 2.7 09:20:45 20° SE 09:20:45 20° SE 09:23:02 10° ESE visible
28 Sep 3.3 09:01:05 15° ESE 09:01:05 15° ESE 09:02:10 10° ESE visible
28 Sep 1.2 10:35:47 13° WSW 10:39:11 51° S 10:43:00 10° E visible
29 Sep 1.0 10:16:03 24° WSW 10:18:10 53° S 10:22:01 10° E visible
